Regional Weather Roundup
Issued by NWS

Home | Current Version | Previous Version | Graphics & Text | Print | Product List | Glossary On
Versions: 1 2 3 4 5 6 7 8 9 10 11 12 13 14 15 16 17 18 19 20 21 22 23 24 25 26 27 28 29 30 31 32 33 34 35 36 37 38 39 40 41 42 43 44 45 46 47 48 49 50
000
ASUS43 KLOT 281506
RWRIL

ILLINOIS REGIONAL WEATHER ROUNDUP
NATIONAL WEATHER SERVICE CHICAGO/ROMEOVILLE IL
900 AM CST SAT FEB 28 2015

NOTE: "FAIR" INDICATES FEW OR NO CLOUDS BELOW 12,000 FEET WITH NO
SIGNIFICANT WEATHER AND/OR OBSTRUCTIONS TO VISIBILITY.

* THESE STATIONS ARE NOT UNDER NWS QUALITY CONTROL. THEY ALSO MAY NOT
  REPORT WEATHER SUCH AS PRECIPITATION OR FOG.

ILZ001-002-007-009-015-016-024-281600-
NORTHWEST ILLINOIS

CITY           SKY/WX    TMP DP  RH WIND       PRES   REMARKS
MOLINE         SUNNY     -2 -10  69 E3        30.68R
STERLING*      SUNNY     -4  -8  84 E3        30.69S
SAVANNA*       SUNNY     -7 -13  76 CALM      30.70S
$$

ILZ003-004-008-010-011-017-018-281600-
NORTH CENTRAL ILLINOIS

CITY           SKY/WX    TMP DP  RH WIND       PRES   REMARKS
ROCKFORD       SUNNY     -2  -9  72 CALM      30.71S
FREEPORT*      SUNNY    -13 -18  77 CALM      30.70S
ROCHELLE*      SUNNY     -2  -6  83 CALM      30.70S
DE KALB*       SUNNY     -1  -6  78 S5        30.69S WCI -11
PERU*          SUNNY      5  -1  76 CALM      30.71S
$$

ILZ005-006-012>014-019>023-281600-
NORTHEAST ILLINOIS

CITY           SKY/WX    TMP DP  RH WIND       PRES   REMARKS
CHICAGO-OHARE  MOSUNNY    4  -2  76 S5        30.71S WCI  -5
CHICAGO-MIDWAY MOSUNNY   10  -1  61 S7        30.73S WCI  -1
AURORA         SUNNY      0  -5  79 CALM      30.71S HAZE
LANSING*       SUNNY      3  -1  85 CALM      30.74S
JOLIET*        MOSUNNY    4   1  86 E3        30.73S
WAUKEGAN       SUNNY      5  -4  66 SW6       30.71R WCI  -6
DUPAGE AIRPORT SUNNY      2  -2  83 CALM      30.70R
KANKAKEE*      MOSUNNY    8   0  70 E7        30.73S WCI  -4
WHEELING       SUNNY      6  -2  69 CALM      30.74R
MORRIS*        FOG       -3  -6  86 CALM      30.72S VSB 1/4
ROMEOVILLE*    SUNNY      3  -1  83 SE5       30.72S WCI  -6
NORTHERLY ISL    N/A     11  -2  56 S5          N/A  WCI   3
$$

LMZ740>746-281600-
SOUTHERN LAKE MICHIGAN

STATION/POSITION SKY/WX   TEMP    WIND        PRES    VSBY  WAVE
                          AIR SEA DIR/SP/G                  HT/PER
                          (F)     (DEG/KT/KT) (MB)    (MI)  (FT/S)
WAUKEGAN HARBOR             8     210/  6/  8   N/A
HARRISON CRIB              10     180/  9/ 13   N/A
BURNHAM HARBOR             12     160/  3/  5   N/A
CALUMET HARBOR              9     190/  4/  5 1039.3R
MICHIGAN CITY               8     130/  6/  8   N/A
$$

ILZ025>027-034>036-040-047-049-050-058-095>099-281600-
WEST-CENTRAL ILLINOIS

CITY           SKY/WX    TMP DP  RH WIND       PRES   REMARKS
QUINCY         SUNNY     10   1  67 SE9       30.62S WCI  -3
GALESBURG*     CLOUDY     8   1  75 E6        30.65S WCI  -2
MACOMB*        CLOUDY    10   3  71 SE10      30.68S WCI  -3
JACKSONVILLE*  PTSUNNY   10   3  74 E5        30.66S WCI   2
PITTSFIELD*    SUNNY     15   5  67 E9        30.65S WCI   3
$$

ILZ028>032-037-038-041>044-048-051>054-059>061-281600-
CENTRAL ILLINOIS

CITY           SKY/WX    TMP DP  RH WIND       PRES   REMARKS
PONTIAC        CLOUDY     8   1  72 E10       30.71S WCI  -6
BLOOMINGTON    MOSUNNY   13   4  67 SE6       30.68R WCI   4
DECATUR        CLOUDY    13   5  70 E8        30.68R WCI   2
PEORIA         CLOUDY    14   2  58 SE7       30.69R WCI   4
LACON*         CLOUDY     1  -4  79 CALM      30.70S
LINCOLN*       SUNNY     16   5  63 SE9       30.72R WCI   4
SPRINGFIELD    CLOUDY    14   4  64 E6        30.68R WCI   5
TAYLORVILLE    CLOUDY    16   5  62 SE7       30.67F WCI   6
$$

ILZ033-039-045-046-055>057-062-063-281600-
EAST-CENTRAL ILLINOIS

CITY           SKY/WX    TMP DP  RH WIND       PRES   REMARKS
CHAMPAIGN      CLOUDY    14   5  67 E10       30.69R WCI   1
DANVILLE*      PTSUNNY   13   5  69 E3        30.68R
RANTOUL*       PTSUNNY   16   7  67 E7        30.69S WCI   6
MATTOON        CLOUDY    17   4  56 SE9       30.67R WCI   6
PARIS*         CLOUDY    15   6  67 SE6       30.71R WCI   7
$$

ILZ079-100>102-281600-
SOUTHWEST ILLINOIS

CITY           SKY/WX    TMP DP  RH WIND       PRES   REMARKS
ALTON          CLOUDY    16   1  53 E8        30.66F WCI   5
BELLEVILLE     CLOUDY    20   7  56 E7        30.64F WCI  11
CAHOKIA*       CLOUDY    21   7  54 E7        30.66S WCI  12
SPARTA*        CLOUDY    20   9  60 E6        30.65F WCI  13
$$

ILZ064>066-069>071-074>076-080>082-084>086-088>090-092>094-281600-
SOUTH-CENTRAL ILLINOIS

CITY           SKY/WX    TMP DP  RH WIND       PRES   REMARKS
CARBONDALE     CLOUDY    22   9  57 E9        30.66S WCI  12
CAIRO*         CLOUDY    26  14  60 NE10      30.65S WCI  16
EFFINGHAM*     CLOUDY    18   3  50 E7        30.70S WCI   9
MARION         CLOUDY    23  10  58 E9        30.66S WCI  13
MT. VERNON     CLOUDY    19   9  63 NE7       30.67F WCI  10
CENTRALIA*     CLOUDY    20   8  58 E6        30.66F WCI  13
SALEM*         CLOUDY    19   7  57 E7        30.67F WCI  10
METROPOLIS*    CLOUDY    25  13  60 E5        30.64S WCI  19
$$

ILZ067-068-072-073-078-083-087-091-281600-
SOUTHEAST ILLINOIS

CITY           SKY/WX    TMP DP  RH WIND       PRES   REMARKS
LAWRENCEVILLE  CLOUDY    20   8  60 E6        30.71S WCI  12
FLORA*         PTSUNNY   19   7  61 E7        30.68F WCI   9
FAIRFIELD*     CLOUDY    22  10  61 E8        30.68S WCI  12
HARRISBURG*    CLOUDY    24  12  61 E8        30.69R WCI  15
ROBINSON*      CLOUDY    19   7  60 E7        30.72S WCI  10
CARMI*         CLOUDY    26  14  60 E7        30.68R WCI  18
$$

ABBREVIATIONS USED IN REMARKS
   TC - TEMPERATURE IN CELSIUS
  WCI - WIND CHILL INDEX
   HX - HEAT INDEX
  VSB - VISIBILITY
$$




USA.gov is the U.S. government's official web portal to all federal, state and local government web resources and services.